[Iaude] MPEC T77: 2016 TP11 [a=1.04,e=0.18,i=1.5,H=24.2]

mpec at si.edu mpec at si.edu
Sat Oct 8 11:08:10 EDT 2016


M.P.E.C. 2016-T77                                Issued 2016 Oct. 8, 14:52 UT
 
     The Minor Planet Electronic Circulars contain information on unusual
         minor planets and routine data on comets.  They are published
    on behalf of Division F of the International Astronomical Union by the
          Minor Planet Center, Smithsonian Astrophysical Observatory,
                          Cambridge, MA 02138, U.S.A.

             Prepared using the Tamkin Foundation Computer Network

                              MPC at CFA.HARVARD.EDU
            URL http://www.minorplanetcenter.net/    ISSN 1523-6714


                                   2016 TP11
 
Observations:
     K16T11P* C2016 10 06.32169 03 29 58.66 -00 26 28.4                qET077703
     K16T11P  C2016 10 06.32770 03 29 53.66 -00 26 35.5          18.6 VqET077703
     K16T11P  C2016 10 06.33370 03 29 48.57 -00 26 45.2          18.3 VqET077703
     K16T11P  C2016 10 06.33971 03 29 43.43 -00 26 52.5          18.1 VqET077703
     K16T11P  C2016 10 06.37124 03 29 16.65 -00 27 40.6                qET077703
     K16T11P  C2016 10 06.37781 03 29 11.11 -00 27 51.1          18.6 VqET077703
     K16T11P  C2016 10 06.39096 03 28 59.93 -00 28 10.4          18.5 VqET077703
     K16T11P  C2016 10 06.66712 03 25 33.98 -00 35 00.2          18.9 VqET077900
     K16T11P  C2016 10 06.67447 03 25 28.01 -00 35 10.5          18.7 VqET077900
     K16T11P  C2016 10 06.68182 03 25 22.01 -00 35 20.9          18.9 VqET077900
     K16T11P  C2016 10 06.76967 03 24 10.61 -00 37 24.2          18.7 RoET077300
     K16T11P  C2016 10 06.77163 03 24 09.01 -00 37 26.9          18.6 RoET077300
     K16T11P  C2016 10 06.77361 03 24 07.43 -00 37 29.5          18.6 RoET077300
     K16T11P  C2016 10 06.77557 03 24 05.80 -00 37 32.8          18.8 RoET077300
     K16T11P KC2016 10 07.01706 03 21 19.67 -00 43 34.1          18.7 VqET077958
     K16T11P KC2016 10 07.02415 03 21 14.20 -00 43 43.5          18.9 VqET077958
     K16T11P KC2016 10 07.03122 03 21 08.67 -00 43 53.0          18.9 VqET077958
     K16T11P KC2016 10 07.29405 03 18 02.10 -00 49 31.1          18.8 VqET077H21
     K16T11P KC2016 10 07.29727 03 17 59.64 -00 49 35.4          19.0 VqET077H21
     K16T11P KC2016 10 07.30050 03 17 57.18 -00 49 39.6          19.0 VqET077H21
     K16T11P KC2016 10 07.30372 03 17 54.70 -00 49 43.8          18.9 VqET077H21
     K16T11P KC2016 10 07.30695 03 17 52.23 -00 49 48.0          18.7 VqET077H21
     K16T11P KC2016 10 07.31017 03 17 49.77 -00 49 52.2          18.8 VqET077H21
     K16T11P KC2016 10 07.31339 03 17 47.29 -00 49 56.3          18.7 VqET077H21
     K16T11P KC2016 10 07.34389 03 17 23.50 -00 50 23.2          18.5 RqET077850
     K16T11P KC2016 10 07.35101 03 17 18.03 -00 50 32.8          18.6 RqET077850
     K16T11P KC2016 10 07.35718 03 17 13.29 -00 50 40.3          18.4 RqET077850
     K16T11P KC2016 10 07.36645 03 17 06.10 -00 50 52.2          18.1 RqET077850
     K16T11P KC2016 10 07.37357 03 17 00.72 -00 51 01.7          18.3 RqET077850
     K16T11P  C2016 10 08.30594 03 06 59.16 -01 09 47.7          17.8 VqET077I52
     K16T11P  C2016 10 08.30763 03 06 57.96 -01 09 50.8          17.7 VqET077I52
     K16T11P  C2016 10 08.30877 03 06 57.21 -01 09 51.2          17.3 VqET077I52
     K16T11P  C2016 10 08.31022 03 06 56.20 -01 09 52.1          16.3 VqET077I52
 
Observer details:
300 Bisei Spaceguard Center--BATTeRS.  Observers S. Okumura, A. Asami.  1.0-m
    f/3.0 reflector + CCD.
703 Catalina Sky Survey.  Observer D. C. Fuls.  Measurers E. J. Christensen,
    D. C. Fuls, A. R. Gibbs, A. D. Grauer, J. A. Johnson, R. A. Kowalski,
    S. M. Larson, G. J. Leonard, R. G. Matheny, R. L. Seaman, F. C. Shelly.
    0.68-m Schmidt + CCD.
850 Cordell-Lorenz Observatory, Sewanee.  Observers D. T. Durig, L. W. Bass.
    0.3-m f/9.4 Schmidt-Cassegrain + CCD.
900 Moriyama.  Observer Y. Ikari.  0.26-m f/7.0 reflector + CCD.
958 Observatoire de Dax.  Observers P. Dupouy, J. B. de Vanssay.  Measurer
    P. Dupouy.  0.43-m f/2.7 reflector + CCD.
H21 Astronomical Research Observatory, Westfield.  Observer R. Holmes.
    Measurers L. Buzzi, T. Linder, S. Foglia, T. Vorobjov.  0.61-m f/4.0
    astrograph + CCD.
I52 Steward Observatory, Mt. Lemmon Station.  Observer D. C. Fuls.  Measurers
    E. J. Christensen, D. C. Fuls, A. R. Gibbs, A. D. Grauer, J. A. Johnson,
    R. A. Kowalski, S. M. Larson, G. J. Leonard, R. G. Matheny, R. L. Seaman,
    F. C. Shelly.  1.0-m reflector + CCD.
 
Orbital elements:
2016 TP11                                                Earth MOID = 0.0080 AU
Epoch 2016 July 31.0 TT = JDT 2457600.5                 MPC
M  13.97330              (2000.0)            P               Q
n   0.93201552     Peri.  108.55129     +0.12924718     +0.99159871
a   1.0379759      Node   168.87095     -0.91966461     +0.12183307
e   0.1765943      Incl.    1.54705     -0.37082634     +0.04345910
P   1.06           H   24.2           G   0.15           U   7
Residuals in seconds of arc
161006 703  0.8-  1.4-    161006 300  0.6+  0.0     161007 H21  0.2+  0.1+
161006 703  0.4+  0.5+    161006 300  1.1+  0.2+    161007 H21  0.0   0.3+
161006 703  0.2+  0.2-    161006 300  0.5+  0.3-    161007 850  0.3+  0.1+
161006 703  0.5-  1.4+    161007 958  1.4-  0.5-    161007 850  0.2+  0.2-
161006 703  0.4-  0.3+    161007 958  0.7-  0.2-    161007 850  0.1+  0.3+
161006 703  0.4+  0.4-    161007 958  1.1-  0.1-    161007 850  1.4-  0.4+
161006 703  0.5+  0.2-    161007 H21  0.0   0.1+    161007 850  0.5-  0.1+
161006 900  0.7-  0.2-    161007 H21  0.0   0.0     161008 I52  0.4+  0.1+
161006 900  0.2+  0.0     161007 H21  0.2+  0.0     161008 I52  0.1-  1.0-
161006 900  0.7+  0.1+    161007 H21  0.0   0.1+    161008 I52  0.4+  0.1-
161006 300  0.7+  0.0     161007 H21  0.1+  0.1+    161008 I52  0.3+  0.7+

Ephemeris:
2016 TP11                a,e,i = 1.04, 0.18, 2                   q = 0.8547
Date    TT    R. A. (2000) Decl.     Delta      r     Elong.  Phase     V
2016 09 08    11 08 12.8 +06 58 35   0.06390 0.9436     1.3   178.6
...
2016 09 23    08 20 20.9 +07 18 02   0.02821 0.9877    55.4   123.3    21.5
...
2016 10 01    05 01 51.3 +02 37 35   0.02787 1.0119   112.0    66.5    18.8
...
2016 10 07    03 21 27.1 -00 40 31   0.03854 1.0301   142.0    36.7    18.7
2016 10 08    03 10 07.4 -01 01 53   0.04084 1.0331   145.6    33.2    18.7
2016 10 09    02 59 56.8 -01 20 29   0.04324 1.0361   148.8    30.0    18.8
...
2016 10 15    02 16 29.8 -02 28 54   0.05936 1.0538   162.3    16.7    19.1
...
2016 10 23    01 45 19.4 -02 51 50   0.08423 1.0767   165.7    13.2    19.8
...
2016 11 07    01 21 54.2 -01 53 50   0.1401  1.1165   151.8    24.8    21.3

A. U. Tomatic                (C) Copyright 2016 MPC           M.P.E.C. 2016-T77




More information about the Iaude mailing list